Mason City, IA

6:00 AM CDT on October 20, 2017 (GMT -0500)
Mason City Municipal

Weather History for KMCW - April, 2012

Change the Weather History Date:

Saturday, April 7, 2012

  Actual Average Record
Temperature  
Mean Temperature 49 °F 43 °F  
Max Temperature 61 °F 54 °F 80 °F (1991)
Min Temperature 37 °F 32 °F 10 °F (1936)
Degree Days  
Heating Degree Days 16 22  
Month to date heating degree days 87 165  
Since 1 July heating degree days 5611 7010  
Cooling Degree Days 0 0  
Month to date cooling degree days 0 0  
Year to date cooling degree days 11 0  
Moisture  
Dew Point 37 °F    
Average Humidity 63    
Maximum Humidity 93    
Minimum Humidity 32    
Precipitation  
Precipitation 0.05 in 0.11 in 1.80 in (1919)
Month to date precipitation 0.05 0.74  
Year to date precipitation 4.53 4.79  
Snow  
Snow 0.00 in 0.10 in 11.20 in (2003)
Month to date snowfall 0.0 0.9  
Since 1 July snowfall 18.8 39.4  
Snow Depth 0.00 in    
Sea Level Pressure  
Sea Level Pressure 30.14 in    
Wind  
Wind Speed 13 mph (SSW)    
Max Wind Speed 29 mph    
Max Gust Speed 37 mph    
Visibility 7 miles    
Events Rain    
T = Trace of Precipitation, MM = Missing Value Source: NWS Daily Summary

Daily Weather History Graph

Daily Weather History Graph

Search for Another Location

Airport or City:

Trip Planner

Search our weather history database for the weather conditions in past years. The results will help you decide how hot, cold, wet, or windy it might be!

Date:

Astronomy

Apr. 07, 2012 Rise Set
Actual Time 6:43 AM CDT 7:47 PM CDT
Civil Twilight 6:14 AM CDT 8:16 PM CDT
Nautical Twilight 5:40 AM CDT 8:51 PM CDT
Astronomical Twilight 5:03 AM CDT 9:27 PM CDT
Moon 9:26 PM CDT (4/7) 6:53 AM CDT (4/7)
Length of Visible Light 14h 01m
Length of Day
13h 03m
Full, 99% of the Moon is Illuminated
Apr 7
Full
Apr 13
Last Quarter
Apr 21
New
Apr 29
First Quarter
May 5
Full

Hourly Weather History & Observations

Time (CDT) Temp. Windchill Dew Point Humidity Pressure Visibility Wind Dir Wind Speed Gust Speed Precip Events Conditions
12:53 AM 46.0 °F 41.4 °F 28.9 °F 51% 30.12 in 10.0 mi SSE 9.2 mph - N/A   Clear
1:53 AM 42.8 °F 38.0 °F 28.4 °F 57% 30.13 in 10.0 mi SSE 8.1 mph - N/A   Clear
2:53 AM 37.9 °F 32.7 °F 28.9 °F 70% 30.14 in 10.0 mi SSE 6.9 mph - N/A   Clear
3:53 AM 39.9 °F 35.8 °F 28.9 °F 65% 30.13 in 10.0 mi SE 5.8 mph - N/A   Clear
4:53 AM 43.0 °F 37.2 °F 30.0 °F 60% 30.12 in 10.0 mi SE 10.4 mph - N/A   Overcast
5:53 AM 44.1 °F 38.1 °F 30.9 °F 60% 30.10 in 10.0 mi SE 11.5 mph - N/A   Overcast
6:53 AM 45.0 °F 38.5 °F 32.0 °F 60% 30.09 in 10.0 mi SSE 13.8 mph - N/A   Overcast
7:53 AM 46.0 °F 40.2 °F 33.1 °F 61% 30.10 in 10.0 mi SSE 12.7 mph - N/A   Overcast
8:53 AM 46.0 °F 40.2 °F 34.0 °F 63% 30.09 in 10.0 mi SSE 12.7 mph - N/A   Overcast
9:53 AM 46.9 °F - 37.0 °F 68% 30.12 in 6.0 mi South 9.2 mph - 0.00 in Rain Light Rain
10:17 AM 44.6 °F 38.8 °F 39.2 °F 81% 30.12 in 2.5 mi SSW 11.5 mph - 0.01 in Rain Light Rain
10:37 AM 44.6 °F 39.7 °F 42.8 °F 93% 30.12 in 2.0 mi South 9.2 mph - 0.03 in Rain Light Rain
10:45 AM 46.4 °F 41.5 °F 42.8 °F 87% 30.11 in 2.0 mi South 10.4 mph - 0.03 in Rain Light Rain
10:53 AM 46.0 °F 40.6 °F 43.0 °F 89% 30.12 in 2.0 mi South 11.5 mph - 0.03 in Rain Light Rain
11:07 AM 46.4 °F 41.5 °F 44.6 °F 93% 30.12 in 2.5 mi South 10.4 mph - 0.01 in Rain Light Rain
11:19 AM 46.4 °F 41.5 °F 44.6 °F 93% 30.12 in 3.0 mi South 10.4 mph - 0.01 in Rain Light Rain
11:27 AM 46.4 °F 41.1 °F 44.6 °F 93% 30.12 in 2.5 mi South 11.5 mph - 0.02 in Rain Light Rain
11:44 AM 46.4 °F 41.5 °F 44.6 °F 93% 30.13 in 3.0 mi South 10.4 mph - 0.02 in Rain Light Rain
11:53 AM 46.9 °F - 45.0 °F 93% 30.13 in 5.0 mi South 11.5 mph - 0.02 in   Overcast
12:27 PM 48.2 °F - 44.6 °F 87% 30.12 in 7.0 mi SSW 9.2 mph - N/A   Overcast
12:53 PM 48.9 °F - 45.0 °F 86% 30.12 in 8.0 mi SSW 11.5 mph 20.7 mph N/A   Overcast
1:04 PM 48.2 °F - 44.6 °F 87% 30.12 in 8.0 mi SW 12.7 mph - N/A   Overcast
1:53 PM 48.9 °F - 46.9 °F 93% 30.13 in 5.0 mi WSW 11.5 mph - N/A   Overcast
1:56 PM 48.2 °F - 46.4 °F 93% 30.12 in 4.0 mi WSW 11.5 mph - N/A   Overcast
2:04 PM 48.2 °F - 46.4 °F 93% 30.12 in 5.0 mi WSW 11.5 mph - N/A   Overcast
2:11 PM 50.0 °F - 46.4 °F 87% 30.12 in 7.0 mi WSW 11.5 mph - N/A   Overcast
2:53 PM 53.6 °F - 46.4 °F 77% 30.11 in 10.0 mi West 8.1 mph - N/A   Overcast
3:53 PM 61.0 °F - 37.9 °F 42% 30.10 in 10.0 mi WNW 20.7 mph 26.5 mph N/A   Partly Cloudy
4:53 PM 60.1 °F - 32.0 °F 35% 30.12 in 10.0 mi WNW 23.0 mph 31.1 mph N/A   Clear
5:53 PM 57.9 °F - 28.0 °F 32% 30.14 in 10.0 mi WNW 21.9 mph 33.4 mph N/A   Clear
6:53 PM 55.0 °F - 26.1 °F 33% 30.17 in 10.0 mi WNW 23.0 mph 33.4 mph N/A   Clear
7:53 PM 51.8 °F - 26.6 °F 38% 30.19 in 10.0 mi WNW 15.0 mph - N/A   Clear
8:53 PM 48.0 °F - 26.1 °F 42% 30.23 in 10.0 mi WNW 11.5 mph - N/A   Clear
9:53 PM 43.0 °F 38.2 °F 26.1 °F 51% 30.25 in 10.0 mi West 8.1 mph - N/A   Clear
10:53 PM 43.0 °F 37.2 °F 25.0 °F 49% 30.26 in 10.0 mi West 10.4 mph - N/A   Clear
11:53 PM 42.1 °F 35.7 °F 25.0 °F 51% 30.28 in 10.0 mi West 11.5 mph - N/A   Clear